Date,Time,MPRAMIANA WATER TEMPERATURE,MPRAMIANA DUM VOLUME,MPRAMIANA WATER DEPTH,MPRAMIANA WATER LEVEL,ΦΡΑΓΜΑ ΜΠΡΑΜΙΑΝΩΝ Precipitation (SUM)
06/11/2015,01:00:00,*,*,*,*,11.3
07/11/2015,01:00:00,*,*,*,*,0.0
08/11/2015,01:00:00,*,*,*,*,0.0
09/11/2015,01:00:00,*,*,*,*,0.0
10/11/2015,01:00:00,*,*,*,*,0.0
11/11/2015,01:00:00,*,*,*,*,0.0
12/11/2015,01:00:00,*,*,*,*,0.0
13/11/2015,01:00:00,*,*,*,*,0.0
14/11/2015,01:00:00,*,*,*,*,0.0
15/11/2015,01:00:00,*,*,*,*,0.0
16/11/2015,01:00:00,*,*,*,*,0.0
17/11/2015,01:00:00,*,*,*,*,0.2
18/11/2015,01:00:00,*,*,*,*,5.6
19/11/2015,01:00:00,17.4,10419541.00,11.77,67.46,0.0
20/11/2015,01:00:00,17.3,10896206.00,11.78,67.47,0.0
21/11/2015,01:00:00,17.3,10883296.00,11.77,67.46,0.0
22/11/2015,01:00:00,17.3,10826634.00,11.71,67.40,0.0
23/11/2015,01:00:00,17.3,10839092.00,11.72,67.41,0.0
24/11/2015,01:00:00,17.4,10905890.00,11.79,67.48,0.0
25/11/2015,01:00:00,17.4,10927084.00,11.81,67.50,0.0
26/11/2015,01:00:00,17.4,10858784.00,11.74,67.43,0.3
27/11/2015,01:00:00,17.4,10802437.00,11.69,67.38,5.8
28/11/2015,01:00:00,17.4,10872753.00,11.76,67.45,0.2
29/11/2015,01:00:00,17.3,10917199.00,11.80,67.49,0.4
30/11/2015,01:00:00,17.2,10975301.00,11.86,67.55,0.0
01/12/2015,01:00:00,17.2,11010388.00,11.90,67.59,0.0
02/12/2015,01:00:00,16.9,11037095.00,11.92,67.61,0.0
03/12/2015,01:00:00,16.8,11047818.00,11.94,67.62,0.0
04/12/2015,01:00:00,16.5,11097905.00,11.99,67.68,0.0
05/12/2015,01:00:00,16.3,11125719.00,12.01,67.70,0.0
06/12/2015,01:00:00,16.0,11141607.00,12.03,67.72,0.0
07/12/2015,01:00:00,15.8,11156594.00,12.04,67.73,0.0
08/12/2015,01:00:00,15.7,11139722.00,12.03,67.72,0.0
09/12/2015,01:00:00,15.6,11123632.00,12.01,67.70,0.0
10/12/2015,01:00:00,15.4,11083596.00,11.97,67.66,0.0
11/12/2015,01:00:00,15.2,11065286.00,11.95,67.64,0.0
12/12/2015,01:00:00,15.0,11039998.00,11.93,67.62,0.0
13/12/2015,01:00:00,14.8,11008355.00,11.90,67.59,0.2
14/12/2015,01:00:00,14.5,11035252.00,11.92,67.61,0.0
15/12/2015,01:00:00,14.3,11060828.00,11.95,67.64,0.0
16/12/2015,01:00:00,14.3,11065910.00,11.95,67.64,0.0
17/12/2015,01:00:00,14.2,11046823.00,11.93,67.62,0.0
18/12/2015,01:00:00,14.0,11025842.00,11.91,67.60,0.0
19/12/2015,01:00:00,13.9,10576186.00,11.93,67.62,0.0
20/12/2015,01:00:00,13.6,11072880.00,11.96,67.65,0.0
21/12/2015,01:00:00,13.6,11123708.00,12.01,67.70,0.0
22/12/2015,01:00:00,13.6,11152900.00,12.04,67.73,0.0
23/12/2015,01:00:00,13.5,11147113.00,12.03,67.72,0.0
24/12/2015,01:00:00,13.5,11138752.00,12.03,67.72,0.0
25/12/2015,01:00:00,13.4,11145668.00,12.03,67.72,0.0
26/12/2015,01:00:00,13.4,11149669.00,12.04,67.73,0.0
27/12/2015,01:00:00,13.5,11145346.00,12.03,67.72,0.0
28/12/2015,01:00:00,13.4,11156611.00,12.04,67.73,0.0
29/12/2015,01:00:00,13.4,11142194.00,12.03,67.72,0.0
30/12/2015,01:00:00,13.4,11088703.00,11.98,67.67,0.0
31/12/2015,01:00:00,13.3,11078610.00,11.97,67.66,0.0
01/01/2016,01:00:00,12.9,11102851.00,11.99,67.68,0.4
02/01/2016,01:00:00,12.4,11170680.00,12.06,67.75,1.0
03/01/2016,01:00:00,12.2,11170832.00,12.06,67.75,0.8
04/01/2016,01:00:00,12.1,11147111.00,12.03,67.72,1.1
05/01/2016,01:00:00,12.1,11073309.00,11.96,67.65,2.8
06/01/2016,01:00:00,12.2,11085699.00,11.97,67.66,1.7
07/01/2016,01:00:00,12.3,11107541.00,11.99,67.69,0.0
08/01/2016,01:00:00,12.4,11025803.00,11.91,67.60,0.0
09/01/2016,01:00:00,12.8,11120885.00,12.01,67.70,0.0
10/01/2016,01:00:00,12.7,11208606.00,12.10,67.79,0.0
11/01/2016,01:00:00,12.6,11219553.00,12.11,67.80,0.0
12/01/2016,01:00:00,12.7,11238623.00,12.13,67.82,0.0
13/01/2016,01:00:00,12.7,11229614.00,12.12,67.81,0.0
14/01/2016,01:00:00,12.8,11218421.00,12.11,67.80,0.0
15/01/2016,01:00:00,13.3,11268269.00,12.16,67.85,0.0
16/01/2016,01:00:00,13.2,11284261.00,12.17,67.86,0.0
17/01/2016,01:00:00,13.1,11234534.00,12.12,67.81,0.1
18/01/2016,01:00:00,13.1,10661497.00,12.02,67.71,1.9
19/01/2016,01:00:00,13.1,11171755.00,12.06,67.75,0.0
20/01/2016,01:00:00,12.8,11326281.00,12.22,67.90,0.7
21/01/2016,01:00:00,12.8,11371304.00,12.26,67.95,6.6
22/01/2016,01:00:00,12.8,11423080.00,12.31,68.00,2.1
23/01/2016,01:00:00,12.8,11498614.00,12.39,68.07,0.0
24/01/2016,01:00:00,12.5,11548227.00,12.43,68.12,0.0
25/01/2016,01:00:00,12.1,11594087.00,12.48,68.17,0.0
26/01/2016,01:00:00,11.8,11623153.00,12.51,68.20,0.1
27/01/2016,01:00:00,11.6,11622838.00,12.51,68.20,2.9
28/01/2016,01:00:00,11.5,11692844.00,12.58,68.27,0.0
29/01/2016,01:00:00,11.3,11741093.00,12.62,68.31,0.0
30/01/2016,01:00:00,11.2,11752109.00,12.63,68.32,0.0
31/01/2016,01:00:00,11.3,11760917.00,12.64,68.33,0.0
01/02/2016,01:00:00,11.3,11754795.00,12.64,68.33,0.0
02/02/2016,01:00:00,11.3,11754373.00,12.64,68.33,0.0
03/02/2016,01:00:00,11.4,11806846.00,12.69,68.38,0.0
04/02/2016,01:00:00,11.4,11814181.00,12.69,68.38,0.0
05/02/2016,01:00:00,11.4,11782916.00,12.66,68.35,0.4
06/02/2016,01:00:00,11.5,11729229.00,12.61,68.30,8.5
07/02/2016,01:00:00,11.9,11880332.00,12.76,68.45,2.0
08/02/2016,01:00:00,11.5,11968888.00,12.84,68.53,0.0
09/02/2016,01:00:00,11.3,12004324.00,12.88,68.57,0.0
10/02/2016,01:00:00,11.2,12034160.00,12.91,68.60,0.0
11/02/2016,01:00:00,11.2,12009924.00,12.88,68.57,0.0
12/02/2016,01:00:00,11.3,11995850.00,12.87,68.56,0.8
13/02/2016,01:00:00,11.4,12024252.00,12.90,68.59,0.0
14/02/2016,01:00:00,11.4,11998992.00,12.87,68.56,0.0
15/02/2016,01:00:00,11.5,12034237.00,12.91,68.60,0.0
16/02/2016,01:00:00,11.5,12117744.00,12.99,68.68,0.0
17/02/2016,01:00:00,11.5,11688303.00,13.07,68.76,0.0
18/02/2016,01:00:00,11.6,12185620.00,13.05,68.74,0.0
19/02/2016,01:00:00,11.6,12104492.00,12.97,68.66,0.0
20/02/2016,01:00:00,11.6,12092970.00,12.96,68.65,0.0
21/02/2016,01:00:00,11.7,12125107.00,12.99,68.68,0.0
22/02/2016,01:00:00,13.0,12085223.00,12.96,68.64,0.0
23/02/2016,01:00:00,13.0,12133796.00,13.00,68.69,0.0
24/02/2016,01:00:00,12.9,12117687.00,12.99,68.68,0.0
25/02/2016,01:00:00,12.8,12091912.00,12.96,68.65,0.0
26/02/2016,01:00:00,13.2,12090876.00,12.96,68.65,0.0
27/02/2016,01:00:00,13.2,12084585.00,12.95,68.64,0.0
28/02/2016,01:00:00,13.2,12110647.00,12.98,68.67,0.0
29/02/2016,01:00:00,13.2,12161527.00,13.03,68.72,0.0
01/03/2016,01:00:00,13.2,12159772.00,13.03,68.72,0.0
02/03/2016,01:00:00,13.3,12081266.00,12.95,68.64,0.0
03/03/2016,01:00:00,13.3,11998671.00,12.87,68.56,0.1
04/03/2016,01:00:00,13.3,11971775.00,12.85,68.54,2.1
05/03/2016,01:00:00,13.3,11985165.00,12.86,68.55,0.8
06/03/2016,01:00:00,13.4,12050757.00,12.92,68.61,0.0
07/03/2016,01:00:00,13.5,12057822.00,12.93,68.62,0.0
08/03/2016,01:00:00,13.6,12022777.00,12.89,68.58,0.0
09/03/2016,01:00:00,13.6,11982196.00,12.85,68.55,0.0
10/03/2016,01:00:00,13.7,11918885.00,12.79,68.48,0.0
11/03/2016,01:00:00,13.8,11967889.00,12.84,68.53,0.0
12/03/2016,01:00:00,14.0,12014490.00,12.89,68.58,0.0
13/03/2016,01:00:00,14.0,11977701.00,12.85,68.54,0.3
14/03/2016,01:00:00,14.0,11903859.00,12.78,68.47,5.9
15/03/2016,01:00:00,14.2,11908367.00,12.79,68.47,0.0
16/03/2016,01:00:00,14.8,11999670.00,12.87,68.56,0.0
17/03/2016,01:00:00,15.0,12045242.00,12.92,68.61,0.0
18/03/2016,01:00:00,14.6,11543853.00,12.93,68.62,0.0
19/03/2016,01:00:00,14.4,12000667.00,12.87,68.56,0.0
20/03/2016,01:00:00,14.4,11901540.00,12.78,68.47,0.0
21/03/2016,01:00:00,14.4,11929120.00,12.81,68.49,0.0
22/03/2016,01:00:00,14.4,11923062.00,12.80,68.49,0.0
23/03/2016,01:00:00,14.4,11866056.00,12.74,68.43,0.0
24/03/2016,01:00:00,14.4,11758661.00,12.64,68.33,0.0
25/03/2016,01:00:00,14.5,11724620.00,12.61,68.30,0.0
26/03/2016,01:00:00,14.6,11759356.00,12.64,68.33,0.0
27/03/2016,01:00:00,15.3,11779766.00,12.64,68.33,0.0
28/03/2016,01:00:00,15.1,11700152.00,12.60,68.29,0.4
29/03/2016,01:00:00,15.0,11746354.00,12.63,68.32,0.0
30/03/2016,01:00:00,14.8,11756085.00,12.64,68.33,0.0
31/03/2016,01:00:00,14.8,11757037.00,12.64,68.33,0.0
01/04/2016,01:00:00,14.8,11743781.00,12.62,68.31,0.0
02/04/2016,01:00:00,14.8,11684253.00,12.57,68.26,0.0
03/04/2016,01:00:00,14.8,11628571.00,12.51,68.20,0.0
04/04/2016,01:00:00,14.8,11574115.00,12.46,68.15,0.0
05/04/2016,01:00:00,14.8,11504664.00,12.39,68.08,0.0
06/04/2016,01:00:00,14.9,11442041.00,12.33,68.02,0.0
07/04/2016,01:00:00,14.9,11403193.00,12.29,67.98,0.0
08/04/2016,01:00:00,14.9,11363201.00,12.25,67.94,0.0
09/04/2016,01:00:00,14.9,11286499.00,12.17,67.86,0.0
10/04/2016,01:00:00,14.9,11248073.00,12.14,67.83,0.0
11/04/2016,01:00:00,15.0,11222502.00,12.11,67.80,0.0
12/04/2016,01:00:00,15.0,11189369.00,12.08,67.77,0.0
13/04/2016,01:00:00,15.0,11172099.00,12.06,67.75,0.0
14/04/2016,01:00:00,15.1,11141722.00,12.03,67.72,0.0
15/04/2016,01:00:00,15.1,11098316.00,11.98,67.68,0.0
16/04/2016,01:00:00,15.2,11060134.00,11.95,67.64,0.0
17/04/2016,01:00:00,15.2,11057737.00,11.94,67.63,0.0
18/04/2016,01:00:00,15.2,10554846.00,11.91,67.60,0.0
19/04/2016,01:00:00,15.3,10967111.00,11.85,67.54,0.0
20/04/2016,01:00:00,15.3,10900244.00,11.78,67.48,0.0
21/04/2016,01:00:00,15.4,10840128.00,11.72,67.41,0.3
22/04/2016,01:00:00,17.2,10816087.00,11.70,67.39,6.5
23/04/2016,01:00:00,17.4,10771228.00,11.65,67.34,0.0
24/04/2016,01:00:00,17.5,10677177.00,11.56,67.25,0.0
25/04/2016,01:00:00,17.5,10575801.00,11.45,67.14,0.0
26/04/2016,01:00:00,17.5,10535372.00,11.41,67.10,0.0
27/04/2016,01:00:00,17.6,10511037.00,11.39,67.08,0.0
28/04/2016,01:00:00,17.6,10551945.00,11.43,67.12,0.0
29/04/2016,01:00:00,17.7,10517237.00,11.39,67.08,0.0
30/04/2016,01:00:00,17.7,10459702.00,11.33,67.02,0.0
01/05/2016,01:00:00,17.9,10367469.00,11.24,66.93,0.0
02/05/2016,01:00:00,18.2,10349501.00,11.22,66.91,0.1
03/05/2016,01:00:00,18.3,10327265.00,11.19,66.88,3.1
04/05/2016,01:00:00,18.3,10296656.00,11.16,66.85,0.0
05/05/2016,01:00:00,18.7,10263907.00,11.13,66.82,0.0
06/05/2016,01:00:00,18.8,10251131.00,11.12,66.80,1.0
07/05/2016,01:00:00,19.0,10258422.00,11.12,66.81,0.0
08/05/2016,01:00:00,18.9,10236989.00,11.10,66.79,0.0
09/05/2016,01:00:00,18.9,10209492.00,11.07,66.76,0.0
10/05/2016,01:00:00,18.9,10176572.00,11.04,66.73,0.0
11/05/2016,01:00:00,18.9,10125914.00,10.98,66.67,0.0
12/05/2016,01:00:00,18.8,10069638.00,10.92,66.61,0.0
13/05/2016,01:00:00,18.8,9998365.00,10.85,66.54,0.4
14/05/2016,01:00:00,18.9,9933535.00,10.78,66.47,0.0
15/05/2016,01:00:00,18.9,9924827.00,10.77,66.46,0.0
16/05/2016,01:00:00,18.9,9925614.00,10.77,66.46,0.8
17/05/2016,01:00:00,18.9,9930242.00,10.77,66.46,0.0
18/05/2016,01:00:00,18.9,9460530.00,10.72,66.41,0.0
19/05/2016,01:00:00,18.9,9844597.00,10.68,66.37,0.0
20/05/2016,01:00:00,18.9,9826337.00,10.66,66.35,0.0
21/05/2016,01:00:00,18.9,9774327.00,10.60,66.30,0.0
22/05/2016,01:00:00,18.9,9710698.00,10.54,66.23,0.6
23/05/2016,01:00:00,19.0,9682873.00,10.51,66.20,0.0
24/05/2016,01:00:00,19.3,9669043.00,10.49,66.18,0.0
25/05/2016,01:00:00,19.2,9614121.00,10.43,66.12,0.0
26/05/2016,01:00:00,19.3,9542975.00,10.35,66.04,0.0
27/05/2016,01:00:00,19.5,9502560.00,10.31,66.00,0.0
28/05/2016,01:00:00,19.7,9488079.00,10.29,65.98,0.0
29/05/2016,01:00:00,19.9,9453975.00,10.26,65.95,0.0
30/05/2016,01:00:00,20.0,9402584.00,10.20,65.89,0.0
31/05/2016,01:00:00,20.2,9359585.00,10.15,65.84,0.0
01/06/2016,01:00:00,20.3,9304342.00,10.09,65.78,0.0
02/06/2016,01:00:00,20.5,9268705.00,10.05,65.74,0.0
03/06/2016,01:00:00,20.5,9201827.00,9.98,65.67,0.0
04/06/2016,01:00:00,20.6,9131935.00,9.90,65.59,0.0
05/06/2016,01:00:00,20.7,9097425.00,9.86,65.55,0.0
06/06/2016,01:00:00,20.8,9079294.00,9.84,65.53,0.0
07/06/2016,01:00:00,20.9,9040416.00,9.79,65.49,0.0
08/06/2016,01:00:00,20.9,8999285.00,9.75,65.44,0.0
09/06/2016,01:00:00,21.1,8952205.00,9.69,65.39,0.0
10/06/2016,01:00:00,22.6,8908014.00,9.64,65.33,0.0
11/06/2016,01:00:00,22.2,8876678.00,9.61,65.30,0.0
12/06/2016,01:00:00,22.1,8857996.00,9.59,65.28,0.0
13/06/2016,01:00:00,22.2,8825565.00,9.55,65.24,0.0
14/06/2016,01:00:00,22.1,8749948.00,9.46,65.15,0.0
15/06/2016,01:00:00,22.1,8675416.00,9.38,65.07,0.0
16/06/2016,01:00:00,22.2,8686435.00,9.39,65.08,0.0
17/06/2016,01:00:00,22.2,8314652.50,9.39,65.08,0.0
18/06/2016,01:00:00,22.7,8642180.00,9.34,65.03,0.0
19/06/2016,01:00:00,23.2,8574276.00,9.26,64.95,0.0
20/06/2016,01:00:00,23.0,8517262.00,9.19,64.88,0.0
21/06/2016,01:00:00,23.0,8492085.00,9.16,64.85,0.0
22/06/2016,01:00:00,23.0,8452511.00,9.12,64.81,0.0
23/06/2016,01:00:00,23.5,8401109.00,9.06,64.75,0.0
24/06/2016,01:00:00,24.2,8358108.00,9.01,64.70,0.0
25/06/2016,01:00:00,24.3,8296482.50,8.93,64.62,0.0
26/06/2016,01:00:00,24.4,8255383.00,8.88,64.57,0.0
27/06/2016,01:00:00,24.5,8247803.50,8.88,64.57,0.0
28/06/2016,01:00:00,24.5,8210553.00,8.83,64.52,0.0
29/06/2016,01:00:00,24.6,8156392.00,8.77,64.46,0.0
30/06/2016,01:00:00,24.6,8139046.50,8.75,64.44,0.0
01/07/2016,01:00:00,24.7,8141402.50,8.75,64.44,0.0
02/07/2016,01:00:00,25.0,8110347.00,8.71,64.40,0.0
03/07/2016,01:00:00,25.6,8059036.00,8.65,64.34,0.0
04/07/2016,01:00:00,25.7,8008833.00,8.59,64.28,0.0
05/07/2016,01:00:00,25.6,7966712.00,8.54,64.23,0.0
06/07/2016,01:00:00,25.2,7934930.50,8.50,64.19,0.0
07/07/2016,01:00:00,24.8,7902532.50,8.46,64.15,0.0
08/07/2016,01:00:00,24.6,7879131.50,8.43,64.12,0.0
09/07/2016,01:00:00,24.2,7860561.00,8.41,64.10,0.0
10/07/2016,01:00:00,23.8,7834038.00,8.37,64.06,0.0
11/07/2016,01:00:00,23.7,7803023.50,8.34,64.03,0.0
12/07/2016,01:00:00,23.6,7774442.50,8.30,63.99,0.0
13/07/2016,01:00:00,23.5,7743459.50,8.26,63.95,0.0
14/07/2016,01:00:00,23.5,7714387.50,8.23,63.92,0.0
15/07/2016,01:00:00,23.4,7670839.50,8.17,63.86,0.0
16/07/2016,01:00:00,23.5,7634701.00,8.13,63.82,0.0
17/07/2016,01:00:00,23.5,7298580.00,8.11,63.80,0.0
18/07/2016,01:00:00,23.6,7594689.50,8.08,63.77,0.0
19/07/2016,01:00:00,23.9,7550510.50,8.02,63.71,0.0
20/07/2016,01:00:00,24.7,7499345.50,7.96,63.65,0.0
21/07/2016,01:00:00,24.4,7471242.00,7.92,63.61,0.0
22/07/2016,01:00:00,24.1,7478006.50,7.93,63.62,0.0
23/07/2016,01:00:00,24.0,7469187.00,7.92,63.61,0.0
24/07/2016,01:00:00,24.0,7430618.00,7.87,63.56,0.0
25/07/2016,01:00:00,24.2,7375902.00,7.80,63.49,0.0
26/07/2016,01:00:00,24.2,7333570.00,7.75,63.44,0.0
27/07/2016,01:00:00,24.2,7319778.50,7.73,63.42,0.0
28/07/2016,01:00:00,24.3,7307339.00,7.71,63.40,0.0
29/07/2016,01:00:00,24.1,7279065.00,7.68,63.37,0.0
30/07/2016,01:00:00,24.0,7243445.00,7.63,63.32,0.0
31/07/2016,01:00:00,23.9,7209750.00,7.59,63.28,0.0
01/08/2016,01:00:00,23.6,7183499.50,7.56,63.25,0.0
02/08/2016,01:00:00,23.8,7169985.00,7.54,63.23,0.0
03/08/2016,01:00:00,23.7,7143095.00,7.50,63.19,0.0
04/08/2016,01:00:00,23.6,7098715.50,7.44,63.14,0.0
05/08/2016,01:00:00,24.4,7061373.00,7.40,63.09,0.0
06/08/2016,01:00:00,24.2,7041400.00,7.37,63.06,0.0
07/08/2016,01:00:00,24.2,7029027.50,7.35,63.04,0.0
08/08/2016,01:00:00,24.3,7011823.50,7.33,63.02,0.0
09/08/2016,01:00:00,24.4,6991966.50,7.30,63.00,0.0
10/08/2016,01:00:00,24.5,6954172.00,7.26,62.95,0.0
11/08/2016,01:00:00,24.6,6926907.50,7.22,62.91,0.0
12/08/2016,01:00:00,24.7,6903883.50,7.19,62.88,0.0
13/08/2016,01:00:00,25.0,6882073.50,7.16,62.85,0.0
14/08/2016,01:00:00,25.9,6875104.00,7.15,62.84,0.0
15/08/2016,01:00:00,25.3,6861862.50,7.13,62.82,0.0
16/08/2016,01:00:00,24.8,6538311.50,7.09,62.78,0.0
17/08/2016,01:00:00,24.7,6795043.00,7.04,62.73,0.0
18/08/2016,01:00:00,24.7,6761334.50,7.00,62.69,0.0
19/08/2016,01:00:00,24.5,6730441.50,6.96,62.65,0.0
20/08/2016,01:00:00,24.5,6704121.00,6.92,62.61,0.0
21/08/2016,01:00:00,24.7,6687977.50,6.90,62.59,0.0
22/08/2016,01:00:00,24.8,6679561.00,6.89,62.58,0.0
23/08/2016,01:00:00,24.9,6663624.00,6.87,62.56,0.0
24/08/2016,01:00:00,25.0,6633500.00,6.83,62.52,0.0
25/08/2016,01:00:00,25.2,6604859.00,6.79,62.48,0.0
26/08/2016,01:00:00,25.4,6579531.50,6.75,62.44,0.0
27/08/2016,01:00:00,25.4,6575232.00,6.75,62.44,0.0
28/08/2016,01:00:00,25.5,6572549.00,6.74,62.43,0.0
29/08/2016,01:00:00,25.5,6550984.50,6.71,62.40,0.0
30/08/2016,01:00:00,25.4,6521701.50,6.67,62.36,0.0
31/08/2016,01:00:00,25.5,6485665.50,6.62,62.31,0.0
01/09/2016,01:00:00,25.4,6449004.00,6.57,62.26,0.0
02/09/2016,01:00:00,24.9,6401798.50,6.51,62.20,0.0
03/09/2016,01:00:00,24.4,6358084.00,6.45,62.14,0.0
04/09/2016,01:00:00,23.9,6318203.50,6.39,62.08,0.0
05/09/2016,01:00:00,23.9,6316270.00,6.39,62.08,0.0
06/09/2016,01:00:00,23.9,6308909.00,6.38,62.07,0.0
07/09/2016,01:00:00,23.8,6279698.50,6.34,62.03,0.0
08/09/2016,01:00:00,24.0,6259857.00,6.31,62.00,0.0
09/09/2016,01:00:00,24.0,6216416.00,6.25,61.94,0.0
10/09/2016,01:00:00,24.1,6175939.00,6.19,61.88,0.0
11/09/2016,01:00:00,24.2,6165245.00,6.18,61.87,0.0
12/09/2016,01:00:00,24.3,6148164.00,6.15,61.84,0.0
13/09/2016,01:00:00,24.4,6122744.00,6.12,61.81,0.0
14/09/2016,01:00:00,24.7,6090895.50,6.07,61.76,0.0
15/09/2016,01:00:00,24.9,5806446.00,6.03,61.72,0.0
16/09/2016,01:00:00,24.9,6039440.00,6.00,61.69,0.0
17/09/2016,01:00:00,24.4,6004220.50,5.95,61.64,0.0
18/09/2016,01:00:00,23.9,5971985.00,5.90,61.59,0.0
19/09/2016,01:00:00,23.7,5933057.50,5.84,61.53,0.0
20/09/2016,01:00:00,23.8,5893624.00,5.79,61.48,0.1
21/09/2016,01:00:00,23.8,5860189.00,5.74,61.43,1.2
22/09/2016,01:00:00,23.9,5846633.00,5.72,61.41,0.2
23/09/2016,01:00:00,24.0,5837784.50,5.70,61.39,0.2
24/09/2016,01:00:00,23.9,5850003.00,5.72,61.41,0.0
25/09/2016,01:00:00,23.2,5822844.00,5.68,61.37,0.0
26/09/2016,01:00:00,22.6,5769313.00,5.60,61.29,0.0
27/09/2016,01:00:00,22.3,5742635.50,5.56,61.25,0.0
28/09/2016,01:00:00,22.0,5733729.00,5.55,61.24,0.0
29/09/2016,01:00:00,21.6,5727962.00,5.54,61.23,0.0
30/09/2016,01:00:00,21.4,5701196.00,5.50,61.19,0.0
01/10/2016,01:00:00,21.3,5651485.00,5.43,61.12,0.0
02/10/2016,01:00:00,21.3,5607116.00,5.36,61.05,0.0
03/10/2016,01:00:00,21.4,5580772.00,5.32,61.01,0.0
04/10/2016,01:00:00,21.3,5550281.50,5.27,60.97,0.0
05/10/2016,01:00:00,21.3,5500899.50,5.20,60.89,0.0
06/10/2016,01:00:00,21.4,5464295.50,5.14,60.83,0.0
07/10/2016,01:00:00,21.6,5459319.50,5.14,60.83,0.0
08/10/2016,01:00:00,21.7,5442481.00,5.11,60.80,0.0
09/10/2016,01:00:00,21.9,5395458.50,5.04,60.73,0.0
10/10/2016,01:00:00,22.1,5385237.50,5.02,60.71,0.0
11/10/2016,01:00:00,22.2,5355168.00,4.97,60.67,0.0
12/10/2016,01:00:00,22.3,5308317.00,4.90,60.59,0.0
13/10/2016,01:00:00,22.4,5290571.50,4.88,60.57,0.0
14/10/2016,01:00:00,22.7,5295728.00,4.88,60.57,0.0
15/10/2016,01:00:00,22.8,5052289.50,4.85,60.54,0.0
16/10/2016,01:00:00,22.0,5240422.00,4.80,60.49,0.0
17/10/2016,01:00:00,21.6,5211744.50,4.75,60.44,0.0
18/10/2016,01:00:00,21.5,5185012.50,4.71,60.40,0.0
19/10/2016,01:00:00,20.8,5164539.50,4.68,60.37,0.0
20/10/2016,01:00:00,20.2,5144135.50,4.64,60.33,0.0
21/10/2016,01:00:00,20.1,5121181.00,4.61,60.30,0.0
22/10/2016,01:00:00,20.0,5098802.50,4.57,60.26,0.0
23/10/2016,01:00:00,20.1,5084683.00,4.55,60.24,0.0
24/10/2016,01:00:00,20.3,5062966.00,4.51,60.20,0.0
25/10/2016,01:00:00,20.7,5038523.50,4.47,60.16,0.0
26/10/2016,01:00:00,19.9,5008342.50,4.43,60.12,0.0
27/10/2016,01:00:00,19.7,4975841.50,4.37,60.06,0.0
28/10/2016,01:00:00,19.5,4967166.00,4.36,60.05,0.0
29/10/2016,01:00:00,19.5,4973316.50,4.37,60.06,0.0
30/10/2016,01:00:00,19.4,4963072.00,4.37,60.06,0.0
31/10/2016,01:00:00,19.4,4953216.00,4.32,60.01,2.8
01/11/2016,01:00:00,19.2,5043669.50,4.49,60.17,63.0
02/11/2016,01:00:00,18.3,5217518.50,4.76,60.45,0.0
03/11/2016,01:00:00,17.8,5237493.50,4.79,60.48,0.0
04/11/2016,01:00:00,17.6,5245995.50,4.81,60.50,0.0
05/11/2016,01:00:00,17.6,5260024.00,4.83,60.52,0.0
06/11/2016,01:00:00,17.7,5258157.00,4.82,60.51,0.0
07/11/2016,01:00:00,17.7,5258043.50,4.82,60.51,0.0
08/11/2016,01:00:00,17.7,5258154.00,4.82,60.51,0.0
09/11/2016,01:00:00,17.8,5261600.50,4.83,60.52,0.0
10/11/2016,01:00:00,18.0,5241549.50,4.80,60.49,0.0
11/11/2016,01:00:00,18.6,5265061.50,4.84,60.53,0.0
12/11/2016,01:00:00,18.7,5291733.50,4.88,60.57,0.0
13/11/2016,01:00:00,18.6,5070670.50,4.88,60.57,0.0
14/11/2016,01:00:00,18.6,5294733.50,4.88,60.57,1.9
15/11/2016,01:00:00,18.9,5310726.00,4.91,60.60,0.0
16/11/2016,01:00:00,18.6,5320578.00,4.92,60.61,0.0
17/11/2016,01:00:00,17.7,5318597.00,4.92,60.61,0.0
18/11/2016,01:00:00,17.1,5312640.50,4.91,60.60,0.0
19/11/2016,01:00:00,16.9,5323733.00,4.93,60.62,0.0
20/11/2016,01:00:00,16.8,5315330.00,4.91,60.60,0.0
21/11/2016,01:00:00,16.7,5305147.50,4.90,60.59,0.0
22/11/2016,01:00:00,16.7,5306915.00,4.90,60.59,0.0
23/11/2016,01:00:00,16.5,5313130.50,4.91,60.60,0.0
24/11/2016,01:00:00,16.4,5329690.50,4.94,60.63,0.0
25/11/2016,01:00:00,16.3,5333188.50,4.94,60.63,0.0
26/11/2016,01:00:00,16.3,5323122.00,4.93,60.62,0.0
27/11/2016,01:00:00,16.2,5315796.50,4.91,60.60,0.1
28/11/2016,01:00:00,16.3,5305760.50,4.90,60.59,1.9
29/11/2016,01:00:00,16.2,5281192.00,4.86,60.55,0.4
30/11/2016,01:00:00,16.4,5265126.50,4.84,60.53,0.0
01/12/2016,01:00:00,16.3,5285526.50,4.87,60.56,0.6
02/12/2016,01:00:00,15.6,5312829.50,4.91,60.60,0.2
03/12/2016,01:00:00,15.2,5340113.50,4.95,60.64,0.1
04/12/2016,01:00:00,15.1,5371756.50,5.00,60.69,1.3
05/12/2016,01:00:00,15.1,5395896.00,5.04,60.73,0.0
06/12/2016,01:00:00,15.2,5409621.00,5.06,60.75,0.0
07/12/2016,01:00:00,15.0,5421815.00,5.08,60.77,0.0
08/12/2016,01:00:00,14.9,5427643.50,5.09,60.78,0.0
09/12/2016,01:00:00,14.5,5455833.50,5.13,60.82,0.0
10/12/2016,01:00:00,14.2,5442074.00,5.11,60.80,0.0
11/12/2016,01:00:00,14.2,5413000.00,5.07,60.76,0.0
12/12/2016,01:00:00,14.0,5399402.00,5.04,60.73,0.0
13/12/2016,01:00:00,14.0,5136447.00,4.99,60.68,0.0
14/12/2016,01:00:00,13.9,5356231.00,4.98,60.67,1.0
15/12/2016,01:00:00,13.3,5409997.50,5.06,60.75,0.4
16/12/2016,01:00:00,12.9,5404910.00,5.05,60.74,0.0
17/12/2016,01:00:00,12.8,5422753.00,5.08,60.77,0.0
18/12/2016,01:00:00,12.3,5462552.00,5.14,60.83,0.0
19/12/2016,01:00:00,11.9,5466760.50,5.15,60.84,0.0
20/12/2016,01:00:00,11.7,5471872.00,5.16,60.85,0.0
21/12/2016,01:00:00,11.6,5455485.00,5.13,60.82,0.0
22/12/2016,01:00:00,11.4,5423987.00,5.08,60.77,0.2
23/12/2016,01:00:00,11.0,5425383.00,5.09,60.77,5.7
24/12/2016,01:00:00,10.9,5462569.00,5.14,60.83,2.8
25/12/2016,01:00:00,10.8,5495914.50,5.19,60.88,6.7
26/12/2016,01:00:00,10.7,5521249.00,5.23,60.92,0.1
27/12/2016,01:00:00,10.6,5545459.00,5.27,60.96,1.9
28/12/2016,01:00:00,10.5,5572420.00,5.31,61.00,0.1
29/12/2016,01:00:00,10.4,5561128.00,5.29,60.98,2.4
30/12/2016,01:00:00,10.3,5556804.00,5.29,60.98,2.5
31/12/2016,01:00:00,10.0,5645449.00,5.42,61.11,0.6
01/01/2017,01:00:00,9.9,5716121.50,5.53,61.21,0.0
02/01/2017,01:00:00,9.8,5743705.50,5.57,61.26,0.0
03/01/2017,01:00:00,9.7,5765736.00,5.60,61.29,0.0
04/01/2017,01:00:00,9.7,5776656.00,5.61,61.30,0.1
05/01/2017,01:00:00,9.8,5780969.00,5.62,61.31,1.6
06/01/2017,01:00:00,10.0,5781898.50,5.62,61.31,7.0
07/01/2017,01:00:00,10.2,5793567.00,5.64,61.33,7.5
08/01/2017,01:00:00,10.2,5855031.00,5.73,61.42,0.6
09/01/2017,01:00:00,10.1,5938371.50,5.85,61.54,5.3
10/01/2017,01:00:00,9.8,6019281.50,5.97,61.66,2.8
11/01/2017,01:00:00,9.8,6083050.50,6.06,61.75,11.3
12/01/2017,01:00:00,9.7,5969213.50,6.28,61.96,0.0
13/01/2017,01:00:00,9.8,6291810.00,6.36,62.05,0.0
14/01/2017,01:00:00,9.8,6312636.00,6.38,62.07,0.0
15/01/2017,01:00:00,9.9,6301857.50,6.37,62.06,0.2
16/01/2017,01:00:00,10.0,6336476.50,6.42,62.11,0.2
17/01/2017,01:00:00,10.1,6357210.00,6.45,62.14,0.2
18/01/2017,01:00:00,10.3,6389545.00,6.49,62.18,0.0
19/01/2017,01:00:00,10.4,6448077.00,6.57,62.26,0.0
20/01/2017,01:00:00,10.4,6505655.00,6.65,62.34,0.0
21/01/2017,01:00:00,10.7,6558452.50,6.73,62.41,0.0
22/01/2017,01:00:00,10.5,6584027.50,6.76,62.45,0.0
23/01/2017,01:00:00,10.4,6616436.50,6.80,62.49,0.0
24/01/2017,01:00:00,10.4,6623239.50,6.81,62.50,0.5
25/01/2017,01:00:00,10.4,6594183.00,6.77,62.46,6.3
26/01/2017,01:00:00,10.6,6638291.00,6.84,62.52,0.0
27/01/2017,01:00:00,10.7,6704245.50,6.92,62.61,0.0
28/01/2017,01:00:00,10.3,6761800.50,7.00,62.69,0.0
29/01/2017,01:00:00,10.0,6768496.00,7.01,62.70,0.0
30/01/2017,01:00:00,9.8,6776476.00,7.02,62.71,0.0
31/01/2017,01:00:00,9.9,6770508.00,7.01,62.70,0.0
01/02/2017,01:00:00,9.9,6809799.00,7.07,62.75,0.0
02/02/2017,01:00:00,9.8,6864906.00,7.14,62.83,0.0
03/02/2017,01:00:00,9.8,6909268.50,7.20,62.89,0.0